x

Port Washington, Wi (pwaw3) Weather Station

12:40am - Wed 27th May 2015 All times are CDT. -5 hours from GMT.

  • Wind
    9mph, 17mph gusts
  • Air Temp 65°f
  • Sea Pressure 1008.5mb
  • Port Washington, Wi
  • Port Washington, Wi

More Historic Weather Station data

Upgrade to MSW Pro to gain access to the past 30 days of data for over 8000 Wavebouys and Weather Stations around the globe.

Join Pro

Comparision Forecast

View Surf forecast
   
Wed 05/27 12:40am 9 17 mph 1008.5mb 65f
12:30am 9 18 mph 1008.5mb 65f
12:20am 10 21 mph 1008.5mb 65f
12:10am 11 18 mph 1008.5mb 65f
12:00am 10 23 mph 1008.1mb 66f
Tue 05/26 11:40pm 13 21 mph 1008.1mb 66f
11:30pm 14 23 mph 1008.1mb 66f
11:20pm 11 20 mph 1008.5mb 66f
11:10pm 11 20 mph 1008.1mb 66f
11:00pm 11 23 mph 1008.1mb 66f
10:40pm 11 18 mph 1008.1mb 66f
10:30pm 9 20 mph 1008.1mb 66f
10:20pm 13 22 mph 1008.1mb 67f
10:10pm 14 24 mph 1007.8mb 67f
10:00pm 11 23 mph 1007.8mb 67f
9:40pm 14 22 mph 1007.5mb 68f
9:30pm 11 20 mph 1007.5mb 68f
9:20pm 7 15 mph 1007.1mb 68f
9:10pm 9 22 mph 1007.1mb 69f
9:00pm 13 22 mph 1007.1mb 69f
8:40pm 11 23 mph 1006.8mb 70f
8:30pm 11 29 mph 1006.8mb -
8:21pm 11 29 mph 1006.4mb 71f
8:20pm 11 23 mph 1006.4mb -
8:10pm 9 18 mph 1006.4mb -
8:00pm 11 21 mph 1006.4mb -
7:40pm 14 26 mph 1006.1mb -
7:30pm 16 24 mph 1005.8mb -
7:00pm 10 22 mph 1005.8mb -
6:40pm 9 14 mph 1005.8mb 55f
6:30pm 10 14 mph 1005.8mb 54f
6:20pm 8 13 mph 1005.8mb 55f
6:10pm 6 7 mph 1005.8mb 53f
6:00pm 3
mph
1005.8mb 53f
5:40pm 2 5 mph 1006.1mb 54f
5:30pm 2 5 mph 1006.1mb 54f
5:20pm 3 6 mph 1006.1mb 53f
5:10pm 3 6 mph 1006.4mb 54f
5:00pm 3 6 mph 1006.4mb 53f
4:40pm 3 7 mph 1006.4mb 54f
4:30pm 6 7 mph 1006.4mb 55f
4:20pm 6 8 mph 1006.8mb 55f
4:10pm 3 5 mph 1006.8mb 55f
4:00pm 5 6 mph 1006.8mb 55f
3:40pm 5 10 mph 1007.1mb 55f
3:30pm 8 10 mph 1007.5mb 54f
3:20pm 7 10 mph 1007.5mb 54f
3:10pm 7 13 mph 1007.5mb 55f
3:00pm 7 22 mph 1007.5mb 55f
2:40pm 7 14 mph 1007.8mb 55f
2:30pm 10 18 mph 1007.8mb 57f
2:20pm 7 10 mph 1008.5mb 55f
2:10pm 7 17 mph 1008.8mb 54f
2:00pm 16 20 mph 1008.8mb 55f
1:40pm 5 10 mph 1010.2mb 55f
1:30pm 7 9 mph 1010.2mb 55f
1:20pm 2 17 mph 1010.2mb 55f
1:10pm 3 8 mph 1010.5mb 56f
1:00pm 5 8 mph 1011.2mb 56f
12:30pm 5 9 mph 1011.2mb 55f
12:20pm 6 10 mph 1011.5mb 55f
12:10pm 5 10 mph 1011.5mb 55f
12:00pm 5 11 mph 1011.5mb 54f
11:40am 5 8 mph 1011.9mb 55f
11:30am 5 9 mph 1011.9mb 55f
11:20am 5 10 mph 1011.9mb 55f
11:10am 6 9 mph 1011.9mb 56f
11:00am 8 17 mph 1012.2mb 57f
10:40am 6 13 mph 1012.2mb 58f
10:30am 8 11 mph 1012.2mb 57f
10:20am 6 10 mph 1012.2mb 57f
10:10am 6 10 mph 1012.2mb 56f
10:00am 5 9 mph 1012.5mb 55f
9:40am 7 10 mph 1012.9mb 55f
9:30am 7 10 mph 1012.9mb 54f
9:20am 8 10 mph 1013.2mb 53f
9:10am 7 9 mph 1013.2mb 53f
9:00am 7 9 mph 1013.2mb 51f
8:40am 2 3 mph 1012.9mb 52f
8:30am 3 5 mph 1012.9mb 52f
8:20am 3 7 mph 1012.9mb 52f
8:10am 5 7 mph 1013.5mb 53f
8:00am 6 8 mph 1013.5mb 53f
7:40am 3 6 mph 1013.5mb 53f
7:30am 2 9 mph 1013.5mb 54f
7:20am 7 9 mph 1013.5mb 55f
7:10am 8 9 mph 1013.2mb 57f
7:00am 6 9 mph 1013.2mb 56f
6:40am 6 8 mph 1013.2mb 55f
6:30am 6 8 mph 1013.2mb 54f
6:20am 5 7 mph 1013.5mb 54f
6:10am 5 8 mph 1013.5mb 55f
6:00am 5 7 mph 1013.5mb 55f
5:40am 2 6 mph 1013.2mb 54f
5:30am 6 7 mph 1013.2mb 54f
5:20am  -  5 mph 1013.2mb 54f
5:10am 2 5 mph 1013.2mb 55f
5:00am  -  3 mph 1012.9mb 56f
4:40am  -  2 mph 1012.9mb 55f
4:30am  -  2 mph 1012.9mb 55f
4:20am  -  2 mph 1012.9mb 56f
4:10am  -  3 mph 1012.9mb 56f
4:00am  -  2 mph 1012.9mb 57f
3:40am  -  3 mph 1012.5mb 56f
3:30am 2 5 mph 1012.5mb 55f
3:20am 1 3 mph 1012.9mb 54f
3:10am 3 6 mph 1012.9mb 54f
3:00am 3 6 mph 1012.9mb 54f
2:40am 5 7 mph 1012.9mb 54f
2:30am 5 7 mph 1012.9mb 54f
2:20am 3 8 mph 1012.9mb 54f
2:10am 7 8 mph 1012.9mb -
2:00am 7 10 mph 1012.9mb -
1:40am 6 14 mph 1012.9mb -
1:30am 10 13 mph 1012.9mb -
1:20am 7 10 mph 1012.9mb -
1:10am 6 9 mph 1012.9mb -
1:00am 9 14 mph 1012.9mb -
12:50am 11 13 mph 1012.9mb -
12:40am 8 11 mph 1012.9mb -
12:30am 6 22 mph 1012.9mb -
12:20am 8 11 mph 1012.5mb 69f
12:10am 6 9 mph 1012.9mb 70f
12:00am 6 9 mph 1013.2mb 70f
Mon 05/25 11:50pm 5 8 mph 1013.2mb 70f
11:40pm 5 7 mph 1013.2mb 70f
11:30pm 3 7 mph 1013.2mb 69f
11:20pm 5 10 mph 1013.2mb 67f
11:10pm 6 10 mph 1013.2mb 71f
11:00pm 6 9 mph 1013.2mb 71f
10:50pm 5 9 mph 1013.2mb 72f
10:40pm 5 8 mph 1013.2mb 72f
10:30pm 6 10 mph 1012.9mb 72f
10:20pm 7 13 mph 1012.9mb 72f
10:10pm 8 13 mph 1012.9mb 71f
10:00pm 8 10 mph 1012.5mb 71f
9:50pm 7 10 mph 1012.5mb 71f
9:40pm 7 10 mph 1012.5mb 72f
9:30pm 6 11 mph 1012.2mb 72f
9:20pm 5 8 mph 1011.9mb 69f
9:10pm 5 9 mph 1011.9mb 71f
9:00pm 7 10 mph 1011.9mb 73f
8:50pm 7 10 mph 1011.5mb 73f
8:40pm 6 10 mph 1011.2mb 74f
8:30pm 7 10 mph 1011.2mb 74f
8:20pm 6 9 mph 1011.2mb 75f
8:10pm 7 15 mph 1011.2mb 75f
8:00pm 7 14 mph 1011.2mb 76f
7:50pm 10 16 mph 1011.2mb 76f
7:40pm 7 16 mph 1010.8mb 77f
7:30pm 8 15 mph 1011.2mb 77f
7:20pm 8 16 mph 1011.2mb 79f
7:10pm 8 15 mph 1011.2mb 79f
7:00pm 11 17 mph 1011.2mb 79f
6:50pm 7 18 mph 1011.5mb 80f
6:40pm 9 17 mph 1011.2mb 79f
6:30pm 10 22 mph 1011.2mb 79f
6:20pm 8 29 mph 1011.2mb 80f
6:10pm 6 20 mph 1010.8mb 80f
6:00pm 7 15 mph 1010.8mb 80f
5:50pm 10 15 mph 1010.5mb 80f
5:40pm 10 26 mph 1010.8mb 79f
5:30pm 11 22 mph 1010.8mb 81f
5:20pm 14 25 mph 1010.8mb 80f
5:10pm 11 26 mph 1010.8mb 80f
5:00pm 10 17 mph 1010.8mb 80f
4:50pm 9 18 mph 1010.8mb 79f
4:40pm 7 21 mph 1010.8mb 80f
4:30pm 13 22 mph 1010.8mb 80f
4:20pm 15 25 mph 1010.8mb 79f
4:10pm 17 28 mph 1010.5mb 80f
4:00pm 14 23 mph 1010.2mb 80f
3:50pm 13 25 mph 1010.2mb 80f
3:40pm 11 23 mph 1010.2mb 80f
3:30pm 16 23 mph 1010.2mb 78f
3:20pm 14 29 mph 1010.2mb 78f
3:10pm 13 28 mph 1010.2mb 78f
3:00pm 15 23 mph 1009.8mb 77f
2:50pm 11 23 mph 1009.8mb 78f
2:40pm 18 26 mph 1009.8mb 78f
2:30pm 13 24 mph 1009.8mb 78f
2:20pm 18 33 mph 1009.5mb 78f
2:10pm 16 26 mph 1009.5mb 77f
2:00pm 17 26 mph 1009.5mb -
1:50pm 14 29 mph 1009.5mb -
1:40pm 14 29 mph 1009.5mb -
1:35pm 18 29 mph 1009.5mb -
1:30pm 16 28 mph 1009.1mb -
1:20pm 13 28 mph 1009.1mb -
1:10pm 13 21 mph 1009.1mb -
1:00pm 17 24 mph 1009.5mb -
12:50pm 11 24 mph 1009.5mb -
12:40pm 9 17 mph 1009.1mb -
12:30pm 13 22 mph 1009.5mb -
12:20pm 8 21 mph 1009.5mb -
12:10pm 15 21 mph 1009.5mb -
12:00pm 9 20 mph 1009.5mb -
11:50am 10 21 mph 1009.1mb -
11:40am 14 25 mph 1009.1mb -
11:30am 10 18 mph 1009.1mb -
11:20am 8 17 mph 1008.8mb -
11:10am 5 9 mph 1009.1mb 57f
11:00am 1 8 mph 1008.8mb 55f
10:50am 7 13 mph 1009.1mb 55f
10:40am 10 13 mph 1009.1mb 56f
10:30am 8 10 mph 1009.1mb 55f
10:20am 8 11 mph 1009.1mb 54f
10:10am 9 13 mph 1009.1mb 55f
10:00am 9 17 mph 1009.1mb 55f
9:50am 14 17 mph 1009.1mb 53f
9:40am 8 10 mph 1009.5mb 52f
9:30am 3 7 mph 1009.1mb 52f
9:20am 6 7 mph 1009.1mb 52f
9:10am 3 7 mph 1009.1mb 51f
9:00am 2 5 mph 1009.5mb 51f
8:50am 3 8 mph 1009.5mb 50f
8:40am 3 7 mph 1009.5mb 50f
8:30am 5 7 mph 1009.5mb 50f
8:20am 3 5 mph 1009.5mb 50f
8:10am 3 6 mph 1009.8mb 49f
8:00am 2 3 mph 1009.8mb 49f
7:50am 2 3 mph 1009.8mb 49f
7:40am 2 3 mph 1009.8mb 49f
7:30am  -  2 mph 1009.8mb 49f
7:20am 1 3 mph 1010.2mb 49f
7:10am 2 3 mph 1010.2mb 50f
7:00am 1 2 mph 1010.2mb 50f
6:50am  -  mph 1010.5mb 50f
6:40am  -  3 mph 1010.5mb 49f
6:30am 2 3 mph 1010.5mb 50f
6:20am  -  1 mph 1010.2mb 50f
6:10am  -  2 mph 1010.2mb 50f
6:00am 2 3 mph 1010.2mb 51f
5:50am 1 5 mph 1010.2mb 51f
5:40am  -  6 mph 1010.2mb 51f
5:30am 3 6 mph 1010.5mb 51f
5:20am 2 5 mph 1010.5mb 50f
5:10am 5 7 mph 1010.8mb 50f
5:00am 3 5 mph 1010.5mb 50f
4:50am  -  2 mph 1010.8mb 50f
4:40am  -  2 mph 1010.8mb 50f
4:30am 1 5 mph 1010.8mb 49f
4:20am  -  2 mph 1010.8mb 49f
4:10am  -  2 mph 1010.8mb 49f
4:00am  -  3 mph 1010.8mb 50f
3:50am 2
mph
1010.8mb 50f
3:40am  -  2 mph 1011.2mb 50f
3:30am  -  1 mph 1011.2mb 51f
3:20am  -  1 mph 1011.2mb 51f
3:10am 1 2 mph 1011.2mb 50f
3:00am  -  1 mph 1011.2mb 51f
2:50am  -  mph 1011.5mb 50f
2:40am  -  2 mph 1011.5mb 50f
2:30am  -  2 mph 1011.9mb 50f
2:20am 2 3 mph 1011.9mb 50f
2:10am 3 5 mph 1011.9mb 50f
2:00am 3 5 mph 1011.9mb 50f
1:50am 3 6 mph 1012.2mb 50f
1:40am 6 7 mph 1012.2mb 51f
1:30am 5 8 mph 1012.5mb 51f
1:20am 7 8 mph 1012.5mb 51f
1:10am 5
mph
1012.9mb 51f
1:00am 3 6 mph 1013.2mb 52f
12:50am 6 7 mph 1012.9mb 52f
12:40am 5 6 mph 1013.2mb 53f
12:30am 5 6 mph 1013.2mb 54f
12:20am 1 10 mph 1013.5mb 55f
12:10am 3 5 mph 1013.9mb 52f
12:00am 3 5 mph 1013.9mb 53f
Sun 05/24 11:50pm 3 5 mph 1013.9mb 53f
11:40pm 2 3 mph 1014.2mb 55f
11:30pm 3 5 mph 1014.2mb 55f
11:20pm 1 2 mph 1014.2mb 55f
11:10pm  -  2 mph 1014.6mb 55f
11:00pm 3 6 mph 1014.9mb 55f
10:50pm 3 10 mph 1014.9mb 55f
10:40pm  -  6 mph 1014.2mb 55f
10:30pm 3 5 mph 1014.2mb 55f
10:20pm 1 5 mph 1014.2mb 54f
10:10pm 5 6 mph 1014.6mb 53f
10:00pm  -  1 mph 1014.9mb 54f
9:50pm  -  5 mph 1014.9mb 54f
9:40pm 1 5 mph 1014.9mb 54f
9:30pm 3 6 mph 1015.2mb 55f
9:20pm 3 7 mph 1015.2mb 55f
9:10pm 6 9 mph 1015.2mb 55f
9:00pm 6 14 mph 1015.2mb 54f
8:50pm  -  7 mph 1014.9mb 52f
8:40pm 2 6 mph 1014.9mb 51f
8:30pm 3 6 mph 1014.9mb 50f
8:20pm 5 13 mph 1014.9mb 50f
8:10pm 8 10 mph 1015.2mb 50f
8:00pm 8 10 mph 1015.2mb 50f
7:50pm 8 11 mph 1015.2mb 50f
7:40pm 9 13 mph 1015.6mb 50f
7:30pm 8 11 mph 1015.6mb 50f
7:20pm 9 11 mph 1015.9mb 50f
7:10pm 9 16 mph 1015.9mb 51f
7:00pm 11 16 mph 1015.9mb 51f
6:50pm 10 15 mph 1016.6mb 52f
6:40pm 10 16 mph 1016.6mb 52f
6:30pm 8 13 mph 1016.6mb 51f
6:20pm 10 13 mph 1016.9mb 50f
6:10pm 10 13 mph 1017.3mb 50f
6:00pm 10 11 mph 1017.3mb 50f
5:50pm 9 11 mph 1017.6mb 50f
5:40pm 9 11 mph 1017.9mb 50f
5:30pm 9 11 mph 1018.3mb 50f
5:20pm 9 13 mph 1018.3mb 49f
5:10pm 11 13 mph 1018.3mb 49f
5:00pm 9 11 mph 1018.6mb 49f
4:50pm 9 13 mph 1019mb 49f
4:40pm 10 13 mph 1019.3mb 49f
4:30pm 11 14 mph 1019mb 50f
4:20pm 13 15 mph 1018.6mb 51f
4:10pm 15 16 mph 1018.6mb 51f
4:00pm 13 16 mph 1018.6mb 51f
3:50pm 11 14 mph 1019mb 51f
3:40pm 10 13 mph 1019mb 51f
3:30pm 10 14 mph 1019mb 52f
3:20pm 9 13 mph 1019mb 52f
3:10pm 9 10 mph 1019.3mb 52f
3:00pm 9 10 mph 1019.3mb 52f
2:50pm 7 9 mph 1019.6mb 51f
2:40pm 6 8 mph 1020mb 52f
2:30pm 6 7 mph 1020.3mb 52f
2:20pm 5
mph
1020.7mb 52f
2:10pm 5
mph
1020.7mb 52f
2:00pm 2 6 mph 1020.7mb 52f
1:50pm 3 7 mph 1021mb 52f
1:40pm 6 8 mph 1020.7mb 51f
1:30pm 6 8 mph 1020.7mb 51f
1:20pm 6 11 mph 1021mb 52f
1:10pm 5 11 mph 1021.3mb 53f
1:00pm 3
mph
1021.7mb 53f
12:50pm  -  5 mph 1022mb 53f
12:40pm  -  3 mph 1022mb 54f
12:30pm 2 3 mph 1022mb 53f
12:20pm 2 3 mph 1022mb 53f
12:10pm  -  3 mph 1022.4mb 53f
12:00pm 2 3 mph 1022.4mb 53f
11:50am 3
mph
1022.4mb 52f
11:40am 3
mph
1022.4mb 54f
11:30am  -  1 mph 1022.7mb 54f
11:20am  -  6 mph 1022.7mb 53f
11:10am 3 15 mph 1023mb 52f
11:00am 2 3 mph 1022.7mb 53f
10:50am  -  3 mph 1022.7mb 53f
10:40am 2 5 mph 1022.7mb 53f
10:30am  -  3 mph 1022.4mb 53f
10:20am 2 3 mph 1022.4mb 53f
10:10am 2 5 mph 1022.4mb 53f
10:00am 3 7 mph 1022.4mb 53f
9:50am 2 7 mph 1022.4mb 55f
9:40am 3 5 mph 1022.4mb 55f
9:30am 6 7 mph 1022.4mb 54f
9:20am 3 8 mph 1022.4mb 53f
9:10am 5 6 mph 1022.4mb 53f
9:00am 3 6 mph 1022mb 52f
8:50am 5 7 mph 1022mb 52f
8:40am 3 6 mph 1022mb 52f
8:30am 3 5 mph 1022mb 51f
8:20am 2 5 mph 1021.7mb 51f
8:10am 3 5 mph 1022mb 51f
8:00am 3 5 mph 1022mb 51f
7:50am 2 3 mph 1022mb 51f
7:40am 1 3 mph 1022mb 50f
7:30am 2 3 mph 1022.4mb 51f
7:20am 2
mph
1022.4mb 51f
7:10am 1 2 mph 1022.4mb 51f
7:00am  -  3 mph 1022.4mb 52f
6:50am 1 2 mph 1022.4mb 51f
6:40am 2
mph
1022.4mb 50f
6:30am  -  mph 1022.4mb 50f
6:20am  -  1 mph 1022mb 49f
6:10am 1
mph
1022.4mb 49f
6:00am  -  1 mph 1022.4mb 49f
5:50am  -  2 mph 1022.7mb 49f
5:40am 2
mph
1022.7mb 49f
5:30am 1 2 mph 1022.7mb 48f
5:20am 1 3 mph 1022.7mb 48f
5:10am 2 3 mph 1022.7mb 49f
5:00am 2
mph
1022.7mb 49f
4:50am  -  mph 1022.7mb 50f
4:40am  -  2 mph 1022.7mb 49f
4:30am 2
mph
1023mb 49f
4:20am 2
mph
1023mb 50f
4:10am  -  mph 1023mb 50f
4:00am  -  2 mph 1023mb 50f
3:50am  -  2 mph 1023mb 50f
3:40am 1 3 mph 1023mb 50f
3:30am 2 3 mph 1023mb 49f
3:20am  -  mph 1022.7mb 49f
3:10am  -  1 mph 1022.7mb 49f
3:00am 1
mph
1022.7mb 49f
2:50am 2
mph
1022.7mb 49f
2:40am  -  mph 1022.4mb 50f
2:30am  -  mph 1022.4mb 50f
2:20am  -  mph 1022.4mb 50f
2:10am  -  mph 1022.4mb 51f
2:00am  -  1 mph 1022.4mb 51f
1:50am  -  mph 1022.4mb 51f
1:40am  -  mph 1022.7mb 51f
1:30am  -  mph 1022.7mb 51f
1:20am  -  mph 1022.7mb 51f
1:10am  -  mph 1022.7mb 51f
1:00am  -  mph 1022.7mb 52f
12:50am  -  mph 1023mb 52f
12:40am  -  mph 1023mb 53f
12:30am  -  2 mph 1023.4mb 54f
12:20am 1 3 mph 1023mb 54f
12:10am 1 3 mph 1023mb 53f
12:00am 1 3 mph 1023.4mb 53f
Sat 05/23 11:50pm  -  mph 1023.4mb 53f
10:40pm  -  1 mph 1023.4mb 54f
10:30pm 1 3 mph 1023.4mb 55f
10:20pm 2 5 mph 1023.4mb 54f
10:10pm  -  2 mph 1023.4mb 54f
10:00pm  -  1 mph 1023.4mb 55f
9:50pm  -  3 mph 1023.4mb 56f
9:40pm 3 5 mph 1023.4mb 56f
9:30pm  -  2 mph 1023mb 56f
9:20pm  -  5 mph 1023.4mb 55f
9:10pm 1 3 mph 1023mb 55f
9:00pm  -  3 mph 1023mb 56f
8:50pm 1 6 mph 1023mb 56f
8:40pm 3 6 mph 1023mb 55f
8:30pm 3 5 mph 1023mb 55f
8:20pm 3 5 mph 1023mb 55f
8:10pm 2 5 mph 1023mb 56f
8:00pm 3 5 mph 1023mb 56f
7:50pm 2 6 mph 1023mb 56f
7:40pm 3 5 mph 1023.4mb 57f
7:30pm 2 6 mph 1023.4mb 57f
7:20pm 5 7 mph 1023.4mb 58f
7:10pm 3 7 mph 1023mb 58f
7:00pm 5 8 mph 1023mb 58f
6:50pm 5 8 mph 1023.4mb 58f
6:40pm 3 8 mph 1023.4mb 58f
6:30pm 5 7 mph 1023.7mb 58f
6:20pm 6 8 mph 1023.7mb 58f
6:10pm 5 8 mph 1023.7mb 58f
6:00pm 5 8 mph 1023.7mb 58f
5:50pm 5 8 mph 1023.7mb 58f
5:40pm 3 8 mph 1024mb 58f
5:30pm 5 8 mph 1024mb 58f
5:20pm 5 8 mph 1024.4mb 58f
5:10pm 5 9 mph 1024.4mb 58f
5:00pm 7 9 mph 1024.4mb 58f
4:50pm 5 9 mph 1024.4mb 57f
4:40pm 5 8 mph 1024.4mb 57f
4:30pm 3 6 mph 1024.7mb 56f
4:20pm 5 8 mph 1024.7mb 56f
4:10pm 3 7 mph 1024.7mb 56f
4:00pm 3 6 mph 1024.7mb 58f
3:50pm 5 8 mph 1025.1mb 56f
3:40pm 5 9 mph 1025.1mb 56f
3:30pm 6 8 mph 1025.4mb 56f
3:20pm 5 8 mph 1025.4mb 54f
3:10pm 5 7 mph 1025.4mb 53f
3:00pm 6 7 mph 1025.4mb 55f
2:50pm 5 7 mph 1025.4mb 55f
2:40pm 5 7 mph 1025.4mb 55f
2:30pm 5 7 mph 1025.7mb 55f
2:20pm 3 7 mph 1025.7mb 54f
2:10pm 3 7 mph 1025.7mb 54f
2:00pm 5 7 mph 1025.7mb 55f
1:50pm 6 8 mph 1026.1mb 55f
1:40pm 6 8 mph 1026.1mb 54f
1:30pm 6 8 mph 1026.4mb 54f
1:20pm 6 8 mph 1026.4mb 55f
1:10pm 7 9 mph 1026.8mb 54f
1:00pm 7 9 mph 1026.8mb 54f
12:50pm 7 8 mph 1026.8mb 54f
12:40pm 6 8 mph 1026.8mb 55f
12:30pm 3 6 mph 1027.1mb 56f
12:20pm 5 7 mph 1026.8mb 56f
12:10pm 6 7 mph 1027.1mb 56f
12:00pm 3 7 mph 1026.8mb 56f
11:50am 5 8 mph 1027.1mb 55f
11:40am 2 5 mph 1027.1mb 54f
11:30am 3 6 mph 1027.1mb 54f
11:20am 2 5 mph 1027.1mb 52f
11:10am 2 5 mph 1027.1mb 52f
11:00am 3 5 mph 1027.1mb 52f
10:50am 3 5 mph 1027.4mb 51f
10:40am 2 5 mph 1027.1mb 52f
10:30am 2 3 mph 1027.4mb 52f
10:20am 2 3 mph 1027.4mb 51f
10:10am 3 5 mph 1027.4mb 52f
10:00am  -  2 mph 1027.8mb 53f
9:50am 2 3 mph 1027.8mb 52f
9:40am 2 3 mph 1027.8mb 52f
9:30am 1 3 mph 1027.8mb 52f
9:20am 3 7 mph 1027.8mb 52f
9:10am 6 7 mph 1028.1mb 53f
9:00am 6 7 mph 1027.8mb 53f
8:50am 5 6 mph 1027.8mb 52f
8:40am 5 6 mph 1027.8mb 52f
8:30am 5 6 mph 1027.8mb 52f
8:20am 5 6 mph 1027.8mb 52f
8:10am 5 6 mph 1027.8mb 52f
8:00am 5 7 mph 1027.8mb 52f
7:50am 5 7 mph 1027.8mb 51f
7:40am 5 6 mph 1027.8mb 52f
7:30am 6
mph
1027.8mb 52f
7:20am 5 7 mph 1027.8mb 53f
7:10am 6 7 mph 1027.8mb 51f
7:00am 6 7 mph 1027.8mb 51f
6:50am 6 7 mph 1027.8mb 52f